Wind_Speed
32 33 33 33 33 31 31 29 26 24 24 23 22 20 18 17 15 13 11 10 9 9 9 12 14 15 19 24 28 31 34 40 44 41 50 52 50 48 48 48 43 38 36 34 32
37 37 38 38 38 38 35 34 32 30 29 28 27 26 26 24 22 20 16 15 13 12 11 11 12 12 14 13 12 15 15 19 22 18 20 28 33 36 40 41 36 29 29 32 30
42 43 43 43 43 42 40 39 38 36 34 32 31 31 30 31 29 27 24 21 19 17 15 15 16 17 17 16 14 13 12 9 12 13 20 18 27 36 36 36 27 26 30 31 30
48 48 48 47 47 46 44 43 42 40 38 36 33 34 34 35 35 33 31 29 26 24 21 19 19 20 22 22 20 18 16 17 20 17 18 15 31 36 32 34 25 29 30 29 30
52 52 51 50 50 49 48 47 45 43 41 40 38 38 38 39 38 36 37 37 32 32 28 25 23 24 25 24 28 23 23 23 25 21 15 10 24 31 24 25 24 25 28 28 31
55 54 54 54 54 54 53 52 49 48 46 43 41 42 40 43 43 39 40 40 39 36 35 32 28 25 26 31 30 26 27 24 26 24 17 14 30 27 23 20 21 22 25 28 28
58 59 60 60 59 59 58 57 55 53 52 50 46 44 42 42 45 43 41 43 42 41 39 37 34 31 29 31 31 28 26 25 25 23 20 16 14 12 11 11 16 12 19 24 24
62 62 63 63 64 63 62 62 59 58 56 54 51 48 49 44 49 48 44 46 46 44 42 41 39 36 33 33 32 30 28 27 29 26 23 16 11 2 5 24 28 15 22 22 16
65 66 66 67 67 67 67 66 65 62 59 58 57 54 54 52 52 50 49 48 47 47 46 45 43 41 37 36 35 32 33 29 27 28 26 17 10 3 9 13 20 18 21 18 12
70 71 72 73 74 73 73 72 72 70 67 65 61 61 59 60 57 58 56 51 52 50 49 48 47 43 38 38 38 36 33 29 26 29 27 20 13 8 13 24 26 22 19 18 10
78 80 80 80 80 79 80 79 77 74 73 73 67 67 64 68 63 63 61 57 55 54 52 52 46 43 45 45 41 33 29 27 26 30 30 25 20 14 20 14 26 24 17 23 13
84 85 86 87 87 88 87 87 84 83 77 78 74 71 70 70 67 66 63 60 56 59 57 50 47 47 44 44 41 39 34 34 35 34 34 31 27 23 27 26 13 25 15 18 17
89 91 93 93 94 94 92 92 92 89 82 83 83 78 81 75 70 68 65 65 61 60 56 52 56 45 45 46 47 46 40 38 38 37 38 39 33 28 32 23 26 15 21 12 20
89 94 100 104 103 103 103 100 98 94 87 85 95 88 86 81 74 75 70 70 66 61 65 58 53 51 49 49 50 47 46 41 37 36 34 41 38 35 31 28 36 32 21 16 16
86 92 98 102 105 108 109 109 108 100 98 103 97 98 93 87 81 81 77 76 70 70 66 61 62 55 52 51 47 47 44 41 39 35 37 37 43 38 37 36 32 27 23 18 16
97 102 107 109 108 108 107 105 101 100 104 124 107 102 99 91 89 87 84 79 79 78 72 70 67 57 57 51 46 43 40 39 40 38 34 38 41 45 42 42 34 29 26 21 19
105 111 113 113 113 111 108 104 96 92 109 124 101 100 101 98 94 93 90 84 78 75 69 72 65 62 59 53 49 43 42 41 37 34 35 44 44 48 49 46 37 31 26 23 19
109 112 111 109 110 111 111 110 104 103 121 106 95 90 92 104 105 101 97 90 85 77 81 73 70 63 58 55 53 48 46 40 43 40 41 44 46 52 53 47 41 34 27 25 23
99 95 91 86 83 84 85 91 99 101 107 107 100 98 100 105 106 113 103 92 87 84 76 77 69 73 65 61 55 50 40 49 43 38 36 42 48 55 53 48 40 34 30 28 26
85 78 73 71 69 67 69 70 74 80 91 102 103 104 104 102 104 111 108 100 94 90 86 79 81 75 70 68 60 52 54 47 37 37 38 37 39 49 49 47 45 39 34 32 30
70 66 58 59 58 60 60 60 62 66 74 82 96 101 104 104 107 107 106 107 110 105 96 89 86 80 80 68 55 53 49 41 44 39 39 41 41 45 46 48 46 40 38 36 33
56 54 54 53 49 48 45 48 56 57 60 69 78 94 109 106 107 106 109 108 106 109 98 93 88 86 79 68 64 61 55 52 44 37 37 42 40 34 43 45 47 45 42 42 37
55 50 48 44 44 44 38 36 39 49 50 59 70 85 97 108 110 108 110 113 102 103 104 101 90 84 83 76 67 61 56 55 52 49 44 44 40 36 36 43 51 48 47 46 43
52 49 46 41 37 35 33 34 31 37 45 52 62 75 83 103 110 115 114 115 103 104 99 95 93 86 78 67 66 64 64 61 58 50 48 47 45 39 30 39 48 54 50 48 47
51 48 44 43 41 36 31 31 28 30 37 47 57 68 80 96 103 110 117 109 102 100 97 96 97 93 84 80 78 73 71 68 60 57 53 51 52 44 36 37 47 52 55 51 47
49 47 48 44 39 36 32 28 26 24 32 42 51 61 73 85 93 107 117 104 107 99 103 97 97 95 87 89 90 83 77 71 69 64 62 59 57 52 44 39 38 46 57 60 55
44 45 44 42 38 32 28 24 20 19 25 35 43 55 66 75 85 100 107 101 108 99 101 99 99 92 84 91 89 84 76 69 71 71 66 65 62 59 51 46 41 40 49 60 61
Wind_Direction
254 255 257 259 261 263 262 262 260 256 255 254 246 242 238 240 221 221 226 215 214 217 208 213 218 224 232 238 245 247 246 249 253 256 258 260 264 266 271 273 276 282 289 289 290
254 256 258 259 261 263 264 264 264 262 260 255 253 247 243 240 242 233 222 233 230 225 226 241 243 241 243 239 239 246 248 249 249 252 257 272 269 270 270 274 275 283 279 278 283
255 257 258 260 261 263 266 267 266 264 260 257 253 251 247 244 243 243 239 237 234 233 232 235 242 249 253 253 248 252 255 202 224 270 302 307 280 282 278 271 269 273 275 277 280
257 258 260 260 262 263 264 265 265 264 263 258 253 251 248 245 246 246 246 240 241 241 234 234 247 251 252 249 249 253 252 253 268 269 283 247 262 272 274 268 263 268 278 278 279
259 260 261 261 262 262 262 262 263 260 259 258 255 251 251 248 244 241 248 247 241 242 244 241 240 244 252 256 244 246 252 253 261 251 264 228 255 272 270 274 267 270 275 278 281
263 263 263 263 264 263 262 260 261 260 258 254 254 254 249 248 245 240 242 247 248 247 246 251 248 245 246 249 248 249 251 249 253 261 249 225 229 253 255 262 264 269 280 283 283
261 262 263 264 264 263 262 261 261 260 258 256 252 249 246 245 246 244 242 242 247 248 249 253 253 255 247 247 248 256 259 258 256 263 266 264 253 235 264 302 296 279 297 296 291
265 264 265 266 266 265 263 261 258 258 257 256 252 247 244 241 247 245 241 243 244 247 252 252 254 257 255 249 254 255 259 263 264 263 267 270 281 230 248 231 270 297 304 301 294
268 268 268 267 267 267 265 263 261 257 255 255 253 247 246 244 248 248 245 246 248 251 252 254 254 256 256 248 249 255 258 261 255 260 262 270 271 263 202 254 284 297 297 299 280
269 268 267 266 266 266 265 264 261 259 258 254 253 253 251 250 247 251 250 247 253 252 254 254 255 256 253 247 248 251 255 257 247 252 255 254 248 133 133 220 275 288 292 297 262
269 267 266 265 264 263 262 261 261 260 259 258 256 255 253 252 249 251 253 251 253 254 249 251 255 249 245 245 250 257 262 253 249 246 247 246 239 202 207 242 250 276 315 294 259
267 266 264 264 262 261 260 260 259 258 256 257 255 253 251 251 252 251 253 251 247 247 249 250 243 244 245 249 255 256 258 249 243 241 235 233 231 210 199 217 296 266 230 264 255
268 267 265 263 263 261 258 258 257 256 253 256 253 249 250 246 249 250 249 250 248 247 245 240 241 242 246 247 254 256 254 249 243 242 235 230 228 227 222 224 182 242 251 260 244
272 270 267 264 262 262 260 257 257 255 253 247 251 247 248 247 246 247 245 244 245 243 239 240 242 243 247 250 252 253 250 246 240 242 248 240 224 222 227 222 213 233 236 239 249
268 266 264 263 264 262 260 259 258 256 255 251 245 249 244 245 239 243 239 241 242 240 239 242 242 243 245 244 247 244 248 244 242 247 246 241 223 220 223 224 223 226 231 231 232
269 268 269 270 269 268 267 265 262 257 254 252 246 245 248 245 243 240 240 240 240 240 240 241 244 246 246 249 248 246 245 243 243 244 246 236 227 221 221 225 223 225 227 231 233
272 271 273 274 274 273 272 270 266 260 254 251 251 245 245 246 244 242 242 238 241 244 245 246 248 244 245 246 242 242 240 239 246 244 225 224 218 222 220 223 219 224 227 231 233
279 278 278 277 273 270 269 268 266 260 255 257 256 251 241 241 240 239 236 235 236 235 235 234 235 241 243 241 237 236 238 241 240 234 225 231 220 218 221 219 217 220 224 231 229
291 290 288 283 278 272 267 263 260 254 251 252 251 248 244 238 237 238 235 232 230 232 235 237 236 234 232 230 232 233 236 233 235 237 241 231 229 226 221 219 215 218 222 233 234
298 295 291 287 281 276 270 263 257 253 245 243 242 242 241 239 235 237 235 231 226 227 228 228 227 229 228 226 227 230 228 237 238 237 231 231 229 228 225 218 216 215 219 227 233
303 299 294 288 285 279 274 268 259 251 243 239 236 236 237 236 233 233 233 231 224 220 220 223 227 227 229 229 230 232 238 236 233 238 238 233 230 221 219 215 215 214 220 224 229
311 308 305 297 289 280 271 265 262 253 242 238 231 228 229 232 232 230 229 230 230 231 229 224 226 226 232 225 223 222 223 224 227 230 233 237 235 229 222 213 211 216 219 224 225
322 319 316 312 305 298 289 274 257 252 243 235 227 224 224 225 227 227 226 227 227 227 230 226 228 229 229 228 229 228 228 229 225 220 223 235 234 224 217 213 206 214 219 220 219
328 326 324 320 315 308 300 285 270 248 240 233 227 223 222 222 221 221 222 223 222 224 224 229 226 225 229 231 226 225 227 227 224 219 225 235 239 233 221 217 210 212 218 218 218
334 334 335 332 325 319 307 292 277 256 240 232 227 221 221 218 219 221 220 220 220 221 219 218 223 222 218 218 220 218 217 218 220 215 218 225 235 231 218 214 217 214 216 220 220
338 341 337 334 332 325 313 304 293 264 243 231 225 221 220 218 217 217 220 217 217 215 219 216 217 220 219 216 218 218 214 215 217 215 212 218 227 230 223 214 221 221 216 219 219
341 340 341 342 340 334 323 314 304 279 245 229 224 220 219 219 217 215 216 213 215 212 215 216 214 216 217 220 222 221 222 222 218 216 215 220 226 228 229 218 218 228 225 221 220
Height
10953 10954 10954 10955 10955 10956 10958 10960 10961 10962 10963 10964 10965 10966 10967 10968 10968 10969 10970 10972 10973 10974 10975 10975 10976 10975 10974 10977 10979 10982 10985 10985 10983 10989 10988 10986 10984 10984 10983 10984 10985 10985 10987 10985 10985
10947 10947 10948 10949 10949 10950 10952 10954 10955 10956 10957 10959 10960 10962 10963 10964 10965 10966 10968 10968 10970 10971 10972 10972 10973 10972 10971 10974 10976 10975 10977 10978 10979 10981 10980 10977 10976 10977 10976 10978 10980 10982 10981 10982 10981
10940 10940 10940 10941 10941 10942 10944 10945 10946 10948 10951 10953 10954 10955 10957 10959 10960 10961 10963 10965 10966 10968 10968 10970 10970 10969 10969 10970 10973 10972 10972 10973 10976 10979 10977 10974 10970 10972 10972 10973 10974 10976 10977 10978 10977
10932 10933 10933 10933 10933 10934 10936 10937 10938 10939 10941 10944 10947 10948 10950 10951 10953 10955 10956 10958 10961 10962 10964 10966 10966 10966 10965 10967 10969 10970 10970 10971 10972 10977 10975 10977 10973 10968 10968 10968 10969 10972 10973 10974 10973
10922 10922 10923 10923 10924 10924 10926 10927 10928 10930 10932 10935 10938 10939 10941 10943 10946 10949 10948 10950 10954 10956 10958 10960 10962 10963 10962 10962 10964 10966 10967 10968 10966 10976 10974 10970 10966 10965 10964 10964 10966 10968 10970 10970 10968
10911 10911 10911 10911 10912 10913 10914 10916 10918 10919 10922 10925 10928 10929 10932 10931 10935 10941 10941 10942 10944 10948 10951 10953 10956 10959 10959 10957 10958 10962 10963 10965 10965 10964 10970 10969 10967 10965 10962 10961 10963 10965 10967 10965 10964
10899 10898 10897 10897 10898 10899 10901 10903 10906 10907 10910 10913 10918 10920 10921 10923 10923 10929 10933 10934 10935 10939 10942 10945 10948 10950 10953 10953 10954 10956 10958 10960 10961 10960 10960 10962 10960 10960 10958 10959 10962 10962 10963 10963 10961
10885 10885 10884 10883 10882 10883 10885 10887 10891 10893 10896 10899 10905 10910 10908 10916 10912 10916 10923 10924 10927 10929 10932 10936 10939 10942 10946 10948 10949 10951 10952 10954 10955 10956 10955 10957 10956 10959 10958 10964 10964 10960 10961 10960 10957
10871 10870 10869 10867 10866 10866 10868 10870 10874 10878 10882 10885 10890 10896 10896 10901 10902 10907 10909 10913 10917 10919 10922 10926 10931 10934 10938 10941 10944 10945 10946 10949 10951 10950 10951 10954 10955 10961 10962 10960 10961 10958 10961 10959 10957
10852 10850 10849 10848 10848 10850 10849 10853 10855 10861 10865 10869 10877 10880 10885 10885 10891 10890 10895 10902 10903 10908 10912 10914 10920 10925 10930 10933 10933 10938 10940 10944 10947 10945 10947 10951 10955 10957 10959 10966 10960 10960 10960 10958 10957
10830 10828 10828 10827 10827 10828 10828 10831 10835 10841 10845 10849 10861 10862 10869 10867 10876 10878 10881 10889 10892 10895 10897 10902 10911 10914 10915 10919 10925 10931 10935 10938 10940 10941 10943 10945 10950 10957 10955 10960 10959 10961 10953 10957 10956
10805 10802 10802 10800 10801 10802 10804 10805 10813 10818 10831 10828 10838 10844 10845 10847 10857 10863 10867 10873 10879 10876 10885 10895 10897 10900 10907 10911 10916 10920 10925 10929 10930 10932 10936 10938 10943 10952 10949 10949 10957 10959 10957 10954 10955
10779 10774 10771 10774 10772 10772 10777 10779 10782 10792 10809 10807 10808 10822 10811 10830 10838 10846 10853 10853 10861 10866 10874 10879 10880 10893 10898 10901 10904 10909 10914 10918 10921 10922 10927 10930 10934 10942 10946 10951 10960 10964 10951 10952 10954
10752 10748 10742 10738 10742 10742 10743 10749 10754 10762 10781 10790 10766 10789 10795 10808 10823 10819 10834 10835 10844 10855 10855 10864 10871 10882 10885 10889 10891 10898 10899 10907 10912 10915 10919 10923 10927 10932 10938 10941 10947 10947 10947 10949 10951
10722 10712 10705 10703 10703 10705 10710 10714 10722 10743 10748 10733 10749 10750 10764 10785 10793 10796 10807 10814 10828 10831 10841 10854 10855 10866 10873 10871 10882 10883 10891 10897 10901 10905 10908 10915 10919 10925 10930 10934 10937 10940 10943 10944 10946
10691 10680 10672 10670 10670 10672 10673 10680 10693 10707 10712 10655 10710 10734 10739 10761 10769 10774 10786 10795 10801 10809 10826 10831 10838 10856 10855 10864 10871 10874 10882 10886 10889 10894 10902 10904 10910 10911 10918 10923 10931 10935 10937 10939 10941
10657 10647 10641 10637 10634 10632 10636 10639 10652 10668 10651 10612 10685 10716 10724 10733 10743 10751 10759 10776 10790 10800 10819 10816 10831 10838 10842 10853 10858 10865 10869 10875 10882 10887 10888 10888 10897 10900 10903 10910 10921 10926 10930 10932 10936
10626 10619 10607 10600 10594 10591 10590 10592 10602 10617 10586 10631 10650 10680 10701 10698 10699 10712 10726 10747 10763 10782 10777 10793 10807 10823 10834 10840 10843 10851 10858 10867 10865 10872 10875 10879 10889 10888 10892 10902 10912 10919 10924 10927 10930
10591 10578 10566 10557 10549 10545 10546 10548 10551 10563 10565 10584 10608 10631 10639 10649 10675 10670 10701 10729 10743 10755 10773 10777 10800 10794 10811 10818 10828 10839 10856 10843 10854 10864 10869 10871 10875 10878 10887 10897 10907 10913 10917 10921 10923
10555 10541 10532 10520 10514 10512 10509 10509 10512 10516 10527 10541 10561 10580 10594 10618 10643 10642 10675 10706 10716 10729 10741 10763 10759 10777 10791 10799 10814 10831 10831 10842 10851 10854 10857 10860 10865 10871 10882 10891 10898 10905 10910 10914 10917
10526 10513 10507 10494 10489 10483 10480 10479 10481 10483 10492 10504 10525 10543 10557 10575 10609 10627 10645 10664 10665 10682 10707 10730 10742 10757 10766 10796 10813 10819 10828 10839 10835 10842 10846 10850 10854 10861 10871 10881 10891 10898 10902 10906 10911
10503 10493 10480 10468 10462 10459 10458 10456 10453 10457 10466 10472 10490 10507 10523 10542 10569 10598 10614 10630 10656 10672 10698 10714 10732 10737 10760 10785 10792 10801 10813 10821 10831 10834 10835 10835 10845 10860 10863 10872 10883 10890 10894 10898 10904
10486 10475 10465 10456 10447 10439 10437 10434 10435 10435 10443 10448 10460 10469 10493 10513 10540 10567 10581 10598 10635 10656 10675 10686 10715 10734 10744 10763 10783 10797 10808 10814 10818 10818 10825 10829 10840 10846 10855 10863 10871 10878 10882 10888 10895
10474 10463 10450 10441 10432 10426 10421 10416 10417 10417 10421 10427 10437 10452 10468 10483 10505 10529 10551 10571 10613 10627 10661 10686 10703 10720 10740 10767 10773 10783 10790 10798 10806 10816 10819 10823 10829 10837 10848 10854 10862 10865 10872 10880 10888
10462 10450 10442 10432 10421 10414 10409 10404 10403 10403 10406 10410 10418 10430 10441 10455 10480 10511 10525 10556 10590 10616 10643 10662 10678 10699 10721 10733 10744 10761 10772 10784 10798 10805 10811 10811 10816 10827 10838 10844 10848 10857 10865 10872 10880
10456 10445 10433 10424 10415 10406 10398 10393 10390 10390 10392 10396 10404 10415 10425 10439 10460 10483 10501 10547 10560 10597 10611 10641 10662 10681 10706 10710 10715 10734 10753 10771 10781 10791 10797 10801 10802 10815 10828 10836 10842 10847 10853 10859 10869
10453 10442 10431 10421 10410 10401 10393 10387 10382 10380 10380 10385 10394 10403 10414 10427 10442 10460 10486 10524 10540 10577 10601 10627 10641 10670 10700 10699 10713 10730 10751 10764 10768 10776 10787 10792 10796 10802 10817 10826 10834 10838 10844 10850 10859